Location: �perlecques
(50.8057°N, 2.1521°E)
Time: 04:54:41
(UTC+00:00)

Cosmos 2237 Rocket - Pass Details

Date: 09 April 2020
Orbit: 833 x 851 km, 71.0° (Epoch: 31 May)

Event Time Altitude Azimuth Distance (km) Brightness Sun altitude
Rises 23:34:47 0° 331° (NNW) 3,409 6.3 -31.0°
Reaches altitude 10° 23:37:49 10° 347° (NNW) 2,474 5.5 -31.1°
Maximum altitude 23:42:10 22° 37° (NE) 1,773 4.3 -31.1°
Enters shadow 23:45:52 12° 83° (E) 2,301 4.5 -31.1°
